297  
ASUS41 KPHI 100112  
RWRPHI  
 
REGIONAL WEATHER ROUNDUP  
NATIONAL WEATHER SERVICE MOUNT HOLLY NJ  
800 PM EST SUN DEC 09 2018  
 
NOTE: "FAIR" INDICATES FEW OR NO CLOUDS BELOW 12,000 FEET WITH NO  
SIGNIFICANT WEATHER AND/OR S TO VISIBILITY
.  
 
* = STATION DOES NOT REPORT PRECIPITATION (E.G. RAIN, SNOW, ETC.)  
OR FOG.
 
 
NJZ015>026-100200-  
SOUTHERN NEW JERSEY  
 
CITY SKY/WX TMP DP RH WIND PRES REMARKS
 
POMONA FAIR 33 23 66 N5 30.22F WCI 29  
WILDWOOD* CLOUDY 34 24 67 N10 30.20F WCI 26  
MILLVILLE FAIR 33 21 61 N6 30.22F WCI 28  
MOUNT HOLLY FAIR 29 21 72 CALM 30.23F  
TRENTON FAIR 31 19 61 W3 30.21F  
 

 
NJZ001>014-100200-  
NORTHERN NEW JERSEY  
 
CITY SKY/WX TMP DP RH WIND PRES REMARKS
 
SUSSEX FAIR 27 17 66 CALM 30.18F  
ANDOVER* N/A 26 17 68 CALM 30.19F  
MORRISTOWN MOCLDY 30 19 64 W5 30.22F WCI 25  
NEWARK CLOUDY 32 17 54 SW6 30.22F WCI 26  
TETERBORO FAIR 32 16 51 NW7 30.21F WCI 26  
CALDWELL FAIR 30 16 56 SW3 30.22F  
SOMERVILLE FAIR 27 20 75 CALM 30.21F  
ALLAIRE* FAIR 30 23 75 NW5 30.22F WCI 25  
TOMS RIVER* FAIR 30 24 78 N5 30.23F WCI 25  
 

 
PAZ043-044-047-054-055-060>062-066>071-100200-  
EASTERN PENNSYLVANIA  
 
CITY SKY/WX TMP DP RH WIND PRES REMARKS
 
PHILADELPHIA CLOUDY 32 16 51 N3 30.24F  
NORTH PHILA FAIR 32 17 54 CALM 30.24F  
BLUE BELL* FAIR 28 23 80 CALM 30.23F  
DOYLESTOWN FAIR 28 17 63 CALM 30.20F  
QUAKERTOWN* CLEAR 27 19 74 CALM 30.19F  
PERKASIE* FAIR 27 18 69 CALM 30.19F  
POTTSTOWN FAIR 26 18 71 CALM 30.23F  
LANCASTER FAIR 29 21 72 CALM 30.22F  
COATESVILLE FAIR 28 18 64 CALM 30.20F  
READING FAIR 28 19 69 CALM 30.20F  
ALLENTOWN FAIR 27 17 66 SW5 30.21F WCI 22  
MOUNT POCONO FAIR 21 15 78 W9 30.11F WCI 11  
HAZLETON FAIR 23 14 68 CALM 30.17S  
WILKES BARRE FAIR 25 15 66 CALM 30.19F  
 

 
DEZALL-MDZ008-012-015-019-020-100200-  
DELAWARE AND EASTERN MARYLAND  
 
CITY SKY/WX TMP DP RH WIND PRES REMARKS
 
WILMINGTON FAIR 31 18 58 N5 30.24F WCI 26  
DOVER FAIR 33 24 68 N10 30.20F WCI 25  
GEORGETOWN LGT RAIN 36 31 82 N7 30.19F WCI 30  
EASTON CLOUDY 34 21 60 N12 30.23F WCI 25  
PATUXENT RAIN 36 34 92 NE16 30.17 FOG WCI 26  
OCEAN CITY LGT RAIN 40 37 89 NE10 30.16S WCI 33  
WALLOPS ISLAND LGT RAIN 38 35 89 N16 30.12F WCI 29  
CAMBRIDGE CLOUDY 32 27 80 N8G15 30.17F WCI 25  
SALISBURY MIX PCPN 33 33 100 NE9 30.16F FOG WCI 25  
 

 
PAZ001-021-NYZ056-072-MDZ011-DCZ001-100200-  
OTHER NEARBY LOCATIONS  
 
CITY SKY/WX TMP DP RH WIND PRES REMARKS
 
HARRISBURG CLOUDY 28 18 66 CALM 30.22F  
STATE COLLEGE PTCLDY 25 16 68 CALM 30.18F  
WILLIAMSPORT FAIR 25 17 72 N6 30.23S WCI 18  
BINGHAMTON FAIR 24 13 62 SW6 30.12S WCI 17  
NEW YORK CITY FAIR 33 17 51 MISG 30.23F  
BALTIMORE CLOUDY 32 18 56 VRB5 30.21F WCI 27  
WASHINGTON DC CLOUDY 35 18 49 N14 30.22F WCI 26  
 

 
 
 
CLICK HERE TO GO TO PREVIOUS BULLETINS.

The Nexlab PA Page
The Nexlab NJ Page
The Nexlab DE Page
The Nexlab MD Page Main Text Page